Flag for Norway Weather past 2 weeks in Raufoss, Norway

Now
56 °F

Cool.


Feels Like: 56 °F
Forecast: 51 / 63 °F
Wind: 1 mph from Southwest

Location: Lillehammer-Saetherengen

Current Time: Jul 28, 2015 at 8:22:30 PM

Latest Report: Jul 28, 2015 at 8:00 PM


Visibility: N/A

Pressure: 29.54 "Hg

Humidity: 83%

Dew point: 51 °F

Location of RaufossLocation

Historic Weather in Raufoss — Graph

°F

Raufoss temperature yesterday

Maximum temperature yesterday: 66 °F (at 5:00 PM)
Minimum temperature yesterday: 46 °F (at 5:00 AM)
Average temperature yesterday: 56 °F

Past Weeks' High & Low Weather Summary

 TemperatureHumidityPressure
High72 °F (Jul 22, 4:00 PM)96% (Jul 27, 8:00 AM)30.08 "Hg (Jul 27, 8:00 AM)
Low43 °F (Jul 25, 4:00 AM)35% (Jul 19, 2:00 PM)29.35 "Hg (Jul 26, 10:00 PM)
Average56 °F75%29.67 "Hg
* Reported Jul 13 7:00 PM — Jul 28 7:00 PM, Raufoss, Weather by CustomWeather, © 2015

Note: Actual official high and low records may vary slightly from our data, if they occured in-between our weather recording intervals... More about our weather records

Advertising

Raufoss weather history for previous 24 hours

 ConditionsComfort  
Time TempWeatherWind HumidityBarometerVisibility
7:00 PM
Tue, Jul 28
57 °FCool.1 mph82%29.54 "HgN/A
6:00 PM59 °FCool.1 mph76%29.50 "HgN/A
5:00 PM60 °FCool.1 mph72%29.50 "HgN/A
4:00 PM60 °FCool.1 mph74%29.53 "HgN/A
3:00 PM59 °FCool.1 mph79%29.54 "HgN/A
2:00 PM60 °FCool.1 mph72%29.54 "HgN/A
1:00 PM59 °FCool.1 mph70%29.54 "HgN/A
12:00 PM55 °FCool.2 mph76%29.55 "HgN/A
11:00 AM54 °FCool.2 mph74%29.56 "HgN/A
10:00 AM52 °FCool.2 mph77%29.56 "HgN/A
8:00 AM52 °FCool.1 mph83%29.55 "HgN/A
7:00 AM53 °FCool.1 mph86%29.54 "HgN/A
6:00 AM53 °FCool.No wind86%29.53 "HgN/A
4:00 AM52 °FCool.1 mph83%29.53 "HgN/A
3:00 AM53 °FCool.No wind83%29.50 "HgN/A
2:00 AM53 °FCool.1 mph81%29.50 "HgN/A
1:00 AM55 °FCool.2 mph75%29.50 "HgN/A
12:00 AM56 °FCool.2 mph76%29.50 "HgN/A
11:00 PM
Mon, Jul 27
54 °FCool.2 mph78%29.47 "HgN/A
10:00 PM58 °FCool.2 mph70%29.47 "HgN/A
9:00 PM60 °FCool.2 mph65%29.44 "HgN/A
8:00 PM61 °FCool.3 mph63%29.44 "HgN/A
Weather by CustomWeather, © 2015

See weather overviewHow to use our weather pages